Home > Weather > Metlakatla > Past weeks

Flag for U.S.A. Weather for the Past 2 Weeks in Metlakatla, Alaska, U.S.A.

Now
46 °F

Overcast.


Feels Like: 45 °F
Forecast: 44 / 46 °F
Wind: 3 mph from Southeast

Location: Metlakatla - Metlakatla Seaplane Base

Current Time: Feb 12, 2016 at 7:54:12 PM

Latest Report: Feb 12, 2016 at 7:16 PM


Visibility: 10 mi

Pressure: 29.81 "Hg

Humidity: 76%

Dew point: 39 °F

Location of MetlakatlaLocation

Historic Weather in Metlakatla — Graph

°F

Metlakatla Temperature Yesterday

Maximum temperature yesterday: 55 °F (at 6:36 PM)
Minimum temperature yesterday: 48 °F (at 7:56 AM)
Average temperature yesterday: 51 °F

High & Low Weather Summary for the Past Weeks

 TemperatureHumidityPressure
High61 °F (Feb 9, 2:36 PM)100% (Feb 5, 3:16 AM)30.31 "Hg (Feb 5, 3:16 AM)
Low36 °F (Jan 31, 7:36 PM)36% (Feb 11, 6:36 PM)29.40 "Hg (Feb 4, 9:36 PM)
Average44 °F79%29.89 "Hg
* Reported Jan 28 6:36 PM — Feb 12 6:36 PM, Metlakatla, Weather by CustomWeather, © 2016

Note: Actual official high and low records may vary slightly from our data, if they occured in-between our weather recording intervals... More about our weather records

Advertising

Metlakatla Weather History for the Previous 24 Hours

 ConditionsComfort  
Time TempWeatherWind HumidityBarometerVisibility
6:36 PM
Fri, Feb 12
45 °FPassing clouds.No wind81%29.82 "Hg10 mi
6:16 PM45 °FPartly cloudy.5 mph87%29.82 "Hg10 mi
5:36 PM45 °FPassing clouds.No wind81%29.83 "Hg10 mi
5:16 PM46 °FPassing clouds.No wind76%29.83 "Hg10 mi
4:36 PM46 °FPassing clouds.6 mph76%29.83 "Hg10 mi
3:56 PM48 °FPassing clouds.6 mph82%29.83 "Hg10 mi
3:36 PM50 °FScattered clouds.9 mph76%29.84 "Hg10 mi
3:16 PM48 °FBroken clouds.8 mph82%29.83 "Hg10 mi
2:56 PM48 °FScattered clouds.6 mph82%29.83 "Hg10 mi
2:16 PM48 °FCloudy.10 mph82%29.83 "Hg10 mi
1:56 PM48 °FBroken clouds.5 mph82%29.83 "Hg10 mi
1:36 PM48 °FBroken clouds.9 mph76%29.83 "Hg9 mi
12:56 PM48 °FPartly sunny.8 mph82%29.83 "Hg10 mi
12:36 PM48 °FMore clouds than sun.9 mph82%29.83 "Hg10 mi
11:56 AM48 °FMore clouds than sun.6 mph87%29.83 "Hg10 mi
11:36 AM48 °FMostly cloudy.8 mph82%29.83 "Hg10 mi
11:16 AM48 °FMostly cloudy.8 mph87%29.83 "Hg10 mi
10:56 AM48 °FBroken clouds.8 mph82%29.83 "Hg10 mi
10:36 AM46 °FCloudy.3 mph87%29.83 "Hg10 mi
10:16 AM46 °FBroken clouds.5 mph87%29.83 "Hg10 mi
9:56 AM46 °FCloudy.6 mph87%29.83 "Hg10 mi
9:36 AM46 °FBroken clouds.3 mph82%29.83 "Hg7 mi
9:16 AM46 °FMore clouds than sun.No wind87%29.82 "Hg9 mi
8:56 AM45 °FOvercast.5 mph93%29.82 "Hg10 mi
8:36 AM45 °FOvercast.3 mph93%29.82 "Hg10 mi
8:16 AM45 °FOvercast.5 mph81%29.82 "Hg10 mi
7:56 AM45 °FOvercast.5 mph81%29.82 "Hg10 mi
7:36 AM43 °FScattered clouds.6 mph87%29.81 "Hg10 mi
7:16 AM41 °FSunny.6 mph81%29.81 "Hg10 mi
6:56 AM41 °FPassing clouds.No wind81%29.80 "Hg10 mi
6:36 AM43 °FPassing clouds.No wind87%29.79 "Hg10 mi
6:16 AM43 °FOvercast.No wind93%29.79 "Hg10 mi
5:56 AM45 °FOvercast.5 mph76%29.78 "Hg9 mi
5:36 AM43 °FMostly cloudy.3 mph87%29.78 "Hg10 mi
5:16 AM45 °FOvercast.3 mph81%29.77 "Hg10 mi
4:56 AM43 °FMostly cloudy.3 mph93%29.76 "Hg10 mi
4:36 AM45 °FMostly cloudy.3 mph81%29.76 "Hg10 mi
4:16 AM45 °FPartly cloudy.3 mph81%29.74 "Hg10 mi
3:56 AM45 °FOvercast.3 mph87%29.74 "Hg7 mi
3:36 AM46 °FPartly cloudy.5 mph82%29.73 "Hg5 mi
3:16 AM46 °FOvercast.3 mph82%29.72 "Hg6 mi
2:56 AM46 °FOvercast.6 mph82%29.71 "Hg10 mi
2:36 AM48 °FOvercast.10 mph82%29.70 "Hg10 mi
2:16 AM48 °FMostly cloudy.7 mph82%29.69 "Hg10 mi
1:56 AM48 °FMostly cloudy.12 mph82%29.68 "Hg8 mi
1:36 AM48 °FOvercast.13 mph82%29.67 "Hg9 mi
1:16 AM48 °FOvercast.15 mph82%29.67 "Hg10 mi
12:56 AM50 °FMostly cloudy.14 mph76%29.67 "Hg10 mi
12:36 AM48 °FMostly cloudy.16 mph82%29.67 "Hg10 mi
12:16 AM48 °FMostly cloudy.18 mph76%29.67 "Hg10 mi
11:56 PM
Thu, Feb 11
48 °FMostly cloudy.13 mph71%29.67 "Hg9 mi
11:36 PM48 °FMostly cloudy.21 mph71%29.68 "Hg10 mi
11:16 PM48 °FMostly cloudy.17 mph71%29.68 "Hg10 mi
10:56 PM48 °FOvercast.16 mph66%29.68 "Hg10 mi
10:36 PM48 °FOvercast.13 mph71%29.69 "Hg10 mi
10:16 PM48 °FOvercast.14 mph71%29.70 "Hg10 mi
9:56 PM48 °FOvercast.18 mph66%29.71 "Hg10 mi
9:36 PM48 °FOvercast.12 mph66%29.72 "Hg10 mi
9:16 PM50 °FMostly cloudy.9 mph58%29.73 "Hg10 mi
8:36 PM52 °FMostly cloudy.13 mph50%29.73 "Hg10 mi
7:56 PM54 °FOvercast.10 mph41%29.73 "Hg10 mi
7:36 PM54 °FOvercast.17 mph41%29.74 "Hg10 mi
7:16 PM54 °FOvercast.14 mph41%29.75 "Hg10 mi
Weather by CustomWeather, © 2016

See weather overviewHow to use our weather pages